This is the latest recevied weather packets stored in our database for station/object AI5KP-13. If no packets are shown the sender has not sent any weather packets the latest 10 day(s).
| Time | Temp. | Humidity | Pressure | Rain* | Wind** | Luminosity | Snow |
|---|---|---|---|---|---|---|---|
| 1777303821 | 25° C | 80% | 1005.3 hPa | 0 mm | - | 314 W/m² | - |
| 1777303518 | 25° C | 80% | 1005.3 hPa | 0 mm | - | 318 W/m² | - |
| 1777303216 | 25° C | 80% | 1005.3 hPa | 0 mm | - | 194 W/m² | - |
| 1777302914 | 25° C | 81% | 1005.2 hPa | 0 mm | - | 470 W/m² | - |
| 1777302610 | 24.44° C | 82% | 1005.3 hPa | 0 mm | - | 174 W/m² | - |
| 1777302309 | 25° C | 79% | 1005.2 hPa | 0 mm | - | 280 W/m² | - |
| 1777302006 | 24.44° C | 81% | 1005.2 hPa | 0 mm | - | 288 W/m² | - |
| 1777301704 | 24.44° C | 82% | 1005.1 hPa | 0 mm | - | 139 W/m² | - |
| 1777301401 | 24.44° C | 82% | 1005 hPa | 0 mm | - | 106 W/m² | - |
| 1777301097 | 25° C | 81% | 1004.9 hPa | 0 mm | - | 391 W/m² | - |
| 1777300794 | 24.44° C | 80% | 1005 hPa | 0 mm | - | 273 W/m² | - |
| 1777300493 | 24.44° C | 81% | 1005.1 hPa | 0 mm | - | 354 W/m² | - |
| 1777300190 | 24.44° C | 82% | 1004.9 hPa | 0 mm | - | 225 W/m² | - |
| 1777299886 | 24.44° C | 81% | 1004.9 hPa | 0 mm | - | 300 W/m² | - |
| 1777299584 | 24.44° C | 81% | 1004.7 hPa | 0 mm | - | 286 W/m² | - |
| 1777299281 | 24.44° C | 81% | 1004.7 hPa | 0 mm | - | 286 W/m² | - |
| 1777298978 | 24.44° C | 81% | 1004.9 hPa | 0 mm | - | 264 W/m² | - |
| 1777298675 | 24.44° C | 82% | 1005 hPa | 0 mm | - | 241 W/m² | - |
| 1777298372 | 23.89° C | 82% | 1005 hPa | 0 mm | - | 207 W/m² | - |
| 1777298068 | 23.89° C | 83% | 1005 hPa | 0 mm | - | 198 W/m² | - |
| 1777297767 | 23.89° C | 83% | 1005.1 hPa | 0 mm | - | 134 W/m² | - |
| 1777297466 | 23.89° C | 83% | 1005 hPa | 0 mm | - | 126 W/m² | - |
| 1777297163 | 23.89° C | 83% | 1005.2 hPa | 0 mm | - | 115 W/m² | - |
| 1777296860 | 23.89° C | 84% | 1005.3 hPa | 0 mm | - | 81 W/m² | - |
| 1777296555 | 23.89° C | 83% | 1005.1 hPa | 0 mm | - | 82 W/m² | - |
* Rain latest hour (hover to see other rain measurements)
** Current wind speed in m/s (hover to see current wind gust speed)